Location: Recife
(8.0585°S, 34.8848°W)
Time: 21:44:29
(UTC-03:00)

Altair - Pass Details

Date: 21 April 2026
Orbit: 1501 x 1682 km, 47.2° (Epoch: 17 May)

Event Time Altitude Azimuth Distance (km) Brightness Sun altitude
Rises 05:21:54 0° 202° (SSW) 4,790 9.8 -0.8°
Reaches altitude 10° 05:25:49 10° 188° (S) 3,833 9.4 0.2°
Maximum altitude 05:33:26 25° 137° (SE) 2,877 9.4 2.0°
Drops below altitude 10° 05:41:09 10° 86° (E) 3,919 12.0 3.9°
Sets 05:45:09 0° 73° (ENE) 4,918 13.0 4.8°
